Location: Innerarity Island Observatory
(30.3139°N, 87.4867°W)
Time: 13:58:21
(UTC-05:00)

OPAL - Visible Passes

Search period start: 25 October 2014 00:00
Search period end: 03 November 2014 23:00
Orbit: 744 x 797 km, 100.2° (Epoch: 24 October)

Date Brightness Start Highest point End Pass type
(mag) Time Alt. Az. Time Alt. Az. Time Alt. Az.
25 Oct 7.9 05:05:06 10° SSE 05:10:12 63° ENE 05:15:15 10° N visible
25 Oct 9.7 19:00:16 10° NNW 19:04:18 26° WNW 19:08:20 10° WSW visible
26 Oct 9.5 04:30:55 10° SE 04:35:10 27° ENE 04:39:23 10° NNE visible
26 Oct 8.4 06:09:31 10° SSW 06:13:53 28° W 06:18:14 10° NW visible
26 Oct 8.1 18:24:23 10° N 18:29:16 62° WNW 18:34:08 10° SSW visible
27 Oct 10.5 03:58:44 10° E 04:00:19 11° ENE 04:01:54 10° NE visible
27 Oct 7.4 05:33:27 10° S 05:38:35 68° WSW 05:43:40 10° NNW visible
27 Oct 10.3 19:30:04 10° NW 19:32:27 14° WNW 19:34:50 10° W visible
28 Oct 8.3 04:58:28 10° SE 05:03:26 50° ENE 05:08:21 10° N visible
28 Oct 9.3 18:53:12 10° N 18:57:33 32° WNW 19:01:53 10° SW visible
29 Oct 9.8 04:24:36 10° ESE 04:28:26 22° ENE 04:32:14 10° NNE visible
29 Oct 8.1 06:02:23 10° SSW 06:07:02 35° W 06:11:40 10° NW visible
30 Oct 7.4 05:26:38 10° SSE 05:31:47 85° WSW 05:36:53 10° NNW visible
30 Oct 10.2 19:22:35 10° NNW 19:25:43 17° WNW 19:28:51 10° WSW visible
31 Oct 8.7 04:51:54 10° SE 04:56:40 40° ENE 05:01:22 10° N visible
31 Oct 8.9 06:32:09 10° SW 06:35:35 18° W 06:39:00 10° NW visible
31 Oct 8.9 18:46:10 10° N 18:50:46 40° WNW 18:55:21 10° SW visible
01 Nov 10.0 04:18:26 10° ESE 04:21:42 17° ENE 04:24:58 10° NNE visible
01 Nov 7.8 05:55:20 10° S 06:00:12 43° WSW 06:05:02 10° NNW visible
02 Nov 7.6 04:19:51 10° SSE 04:24:58 77° ENE 04:30:02 10° N visible
02 Nov 9.9 18:15:18 10° NNW 18:18:58 21° WNW 18:22:38 10° WSW visible
03 Nov 9.1 03:45:24 10° SE 03:49:53 32° ENE 03:54:20 10° N visible
03 Nov 8.7 05:24:45 10° SSW 05:28:42 22° W 05:32:38 10° NW visible
03 Nov 8.4 17:39:11 10° N 17:43:58 50° WNW 17:48:45 10° SSW visible
